Theta_e
312 312 314 312 312 313 314 313 312 313 314 314 313 313 312 314 314 314 315 317 317 318 318 318 318 322 330 339 342 343 342 340 341 339 335 335 345 349 347 345 343 335 335 333
314 315 316 316 315 315 315 315 314 313 315 315 315 314 314 314 313 315 316 318 319 320 319 318 318 325 330 334 339 338 329 337 337 336 335 342 343 344 343 341 333 330 331 333
317 318 318 317 317 316 315 315 314 313 315 315 316 316 316 316 316 316 317 319 320 320 319 318 319 325 331 335 331 326 326 331 336 333 333 333 335 339 337 334 331 331 334 331
318 318 319 318 318 316 316 315 316 315 315 314 316 317 317 318 319 319 320 321 321 320 319 318 321 327 332 333 328 324 328 330 334 335 334 335 332 334 333 336 337 337 332 334
320 319 319 320 319 317 316 315 316 315 314 313 315 316 316 318 319 318 318 320 322 321 320 318 323 328 333 330 324 328 328 332 332 330 329 329 327 331 334 339 334 330 330 334
322 320 319 319 320 318 316 315 315 314 314 314 316 317 316 317 320 321 318 319 320 320 320 319 323 333 331 328 327 331 330 333 338 331 330 329 325 327 329 331 331 333 334 332
323 323 321 320 321 318 316 313 313 315 314 316 315 316 316 318 320 320 317 318 321 321 321 320 335 338 335 332 333 338 336 335 336 335 334 332 332 334 335 335 333 330 329 326
325 326 322 321 317 317 315 313 312 316 316 315 318 317 317 317 318 322 320 321 321 322 322 325 338 337 340 341 339 339 339 338 338 337 335 335 335 333 333 332 330 327 327 330
323 324 320 320 319 318 316 313 313 317 321 318 317 318 323 323 323 324 324 326 328 327 327 334 340 340 341 340 338 337 336 335 335 335 333 332 331 330 329 328 327 327 325 323
321 321 320 320 319 319 317 315 316 319 323 322 321 326 326 326 325 327 326 326 330 335 335 336 338 338 335 332 329 329 328 329 329 327 326 324 323 322 321 319 318 317 316 315
321 322 323 321 321 319 317 315 317 317 320 319 323 326 325 325 324 328 326 327 326 326 326 327 328 327 327 326 324 322 321 320 320 319 319 318 317 317 316 316 315 314 314 313
319 322 322 321 320 320 319 320 316 318 319 319 320 321 325 324 326 325 326 326 326 325 325 325 325 325 323 321 321 320 319 318 317 317 317 316 316 315 315 314 313 312 311 311
322 324 322 323 320 319 321 321 317 317 316 322 320 323 323 325 324 325 325 326 325 326 325 324 322 319 318 317 317 316 316 316 316 316 316 315 315 314 313 312 311 311 310 310
320 322 319 322 321 320 322 322 320 316 318 322 324 326 325 324 326 325 323 323 323 323 323 323 320 316 316 316 316 316 316 315 315 314 314 313 312 311 311 311 310 311 311 312
319 324 319 322 322 324 324 321 321 318 318 320 324 325 325 323 324 324 323 323 322 322 321 318 316 316 316 316 316 315 315 314 314 313 312 310 310 310 310 310 310 310 310 310
318 324 320 325 325 324 326 324 324 321 324 325 325 324 323 323 323 324 324 323 322 318 315 315 315 315 315 315 315 315 314 314 312 311 310 310 310 310 310 309 308 308 309 312
320 323 321 325 323 324 325 324 326 325 324 325 326 323 322 324 324 323 322 320 316 315 314 314 315 314 314 314 313 313 312 310 308 307 308 308 308 307 307 307 309 311 311 311
321 323 318 321 322 327 323 321 324 325 325 323 324 323 321 318 320 322 316 315 314 313 314 313 313 313 313 312 311 308 306 305 305 305 306 306 306 307 308 308 309 310 310 310
321 323 321 322 323 324 324 322 327 324 325 323 321 318 315 314 314 313 312 314 314 313 313 312 312 311 307 304 303 304 305 306 306 306 306 306 307 307 308 308 307 306 305 305
317 318 319 321 325 327 323 322 321 323 326 322 319 317 316 318 315 312 311 312 312 311 311 309 305 303 302 303 303 305 306 305 305 305 305 305 306 306 306 305 306 305 304 303
323 323 322 322 323 323 323 321 322 324 323 320 318 317 316 312 312 310 311 310 310 308 307 305 302 300 299 299 301 304 304 304 304 305 305 304 304 304 304 305 306 305 304 303
321 322 323 323 321 322 322 323 324 320 317 316 313 312 311 311 310 309 308 308 307 307 306 304 301 299 298 296 297 300 301 302 301 302 304 304 303 303 303 304 305 304 304 305
322 320 322 321 324 318 319 318 316 316 314 313 312 311 310 309 308 307 307 307 306 305 304 303 300 297 296 295 294 297 300 301 301 301 302 302 302 303 303 304 304 304 304 305
322 321 321 320 317 316 316 316 315 314 313 312 311 310 309 307 306 306 305 305 304 304 303 300 297 297 296 295 293 293 299 300 300 301 301 301 302 303 303 302 302 303 303 302
320 319 319 317 315 315 314 312 312 311 312 311 310 310 307 306 305 305 304 303 302 300 298 297 297 297 296 294 294 294 297 299 298 300 301 302 303 303 303 303 303 303 302 302
318 318 319 319 316 314 311 308 311 309 307 307 306 305 304 304 304 303 302 301 300 299 298 297 297 296 295 294 294 295 296 297 297 299 301 302 302 303 303 304 303 303 303 303
Wind_Speed
19 12 20 21 16 8 9 8 8 5 9 8 13 14 11 18 16 17 25 29 34 32 35 33 23 22 23 27 28 28 27 27 32 41 28 28 32 24 21 22 21 13 9 7
7 20 11 11 12 15 10 12 11 7 6 7 12 14 16 14 10 24 29 32 27 26 34 33 23 28 27 27 27 24 16 18 24 30 31 29 25 26 21 24 17 12 10 5
21 7 16 16 13 14 13 14 7 10 4 10 5 11 15 11 22 27 31 34 30 28 31 30 28 31 31 31 28 21 21 22 24 20 17 15 22 29 22 23 23 17 13 9
17 21 23 14 17 13 16 9 13 19 7 6 6 10 7 11 12 7 17 24 32 29 29 28 32 34 35 32 28 26 27 30 25 21 19 18 19 23 23 20 19 16 13 15
20 20 25 21 24 18 12 12 16 17 12 5 18 1 7 4 4 7 9 16 22 26 29 29 35 36 36 31 34 32 32 32 26 21 18 15 12 16 16 14 15 15 16 13
21 17 21 26 15 20 13 10 12 13 9 7 14 6 6 5 6 6 7 25 28 24 23 28 32 38 39 36 32 34 30 32 29 23 20 18 18 19 21 17 16 17 16 14
17 19 16 12 21 17 21 10 5 5 5 6 10 4 7 4 4 7 9 19 26 22 18 24 38 40 41 38 34 33 32 29 26 25 23 24 24 22 25 18 17 18 18 18
16 12 26 20 18 15 16 16 6 7 5 5 4 4 5 5 5 12 13 32 21 18 17 32 43 42 40 38 36 37 33 30 28 25 23 23 23 24 26 24 20 19 18 18
12 12 5 22 18 16 14 10 11 4 3 4 2 1 6 12 13 12 16 20 16 24 35 40 41 41 39 35 31 27 24 20 17 16 17 21 24 24 22 20 18 15 15 14
4 6 17 15 10 18 17 6 7 3 6 4 0 3 2 8 9 12 17 23 28 27 28 40 45 41 33 28 24 19 17 17 18 17 15 14 15 14 13 12 13 13 15 16
2 2 2 3 4 15 7 15 4 6 6 5 3 3 6 5 6 14 13 30 32 35 32 31 42 41 34 28 26 24 20 18 15 11 9 7 6 4 6 8 8 9 11 13
9 1 4 5 6 1 2 3 5 7 4 2 5 5 2 4 11 22 20 28 38 39 34 34 30 30 31 28 27 25 22 19 14 10 6 3 1 2 4 6 9 12 14 16
9 6 4 3 4 3 4 4 4 6 4 3 6 4 1 10 13 24 29 31 36 37 30 25 24 26 31 30 28 23 18 15 10 6 2 1 4 7 10 12 14 16 19 20
2 3 4 6 2 4 5 2 2 5 4 6 4 5 2 6 14 14 27 33 34 37 33 22 21 22 24 22 18 13 9 4 1 2 4 7 8 10 12 14 17 18 19 20
1 4 5 3 2 7 4 10 7 5 7 7 8 11 7 8 12 19 31 33 37 35 28 28 30 23 18 15 11 6 1 4 7 8 9 10 12 14 16 18 19 20 21 23
3 4 12 4 11 6 2 1 3 3 7 10 14 6 3 13 18 15 21 26 27 28 32 31 26 20 17 10 6 2 3 8 10 11 12 14 17 19 21 23 24 25 26 27
4 2 4 5 4 1 1 1 2 6 13 19 13 6 7 14 12 19 27 25 30 30 30 29 23 17 12 8 4 4 6 9 12 13 15 18 20 22 24 26 25 25 25 25
3 2 3 3 3 4 2 3 4 12 6 14 17 13 11 18 21 19 29 36 31 30 28 23 19 13 9 6 6 9 11 14 15 17 19 21 22 23 23 22 23 24 24 23
2 2 4 4 2 2 3 4 5 18 6 13 24 21 28 35 43 24 26 34 32 28 23 19 14 10 7 8 11 12 14 14 16 18 19 19 18 18 19 20 21 23 24 22
4 1 3 3 4 2 2 3 7 4 3 7 27 22 24 31 13 7 28 32 30 24 19 16 12 9 8 11 12 14 15 15 14 17 18 16 17 17 18 17 20 21 20 17
4 4 5 4 4 4 12 11 6 6 5 25 33 27 20 8 16 29 29 27 23 18 15 12 11 14 17 16 17 16 17 18 18 17 17 17 17 17 16 16 18 19 17 15
3 4 3 4 3 3 11 9 7 6 19 29 27 37 40 42 36 32 28 25 21 19 15 13 14 15 14 15 16 19 20 21 22 20 16 16 15 15 14 15 17 15 14 15
1 4 5 2 3 2 21 30 29 36 35 34 40 38 45 39 37 33 31 26 20 15 13 11 11 12 14 17 17 18 20 22 25 22 17 15 13 12 12 13 14 14 13 13
7 9 10 11 8 19 33 33 35 40 38 37 40 42 41 41 35 32 28 24 18 13 11 9 9 12 15 17 16 18 17 24 26 20 16 14 13 13 13 14 14 13 13 15
2 6 14 18 17 28 30 37 42 42 44 43 39 38 38 37 33 29 25 20 16 15 11 8 10 11 15 14 17 17 17 23 28 20 15 13 15 16 15 13 11 10 10 10
4 11 10 12 17 28 23 36 46 45 42 43 43 40 35 33 32 26 23 17 15 14 11 10 9 11 13 13 17 16 18 21 28 24 16 14 16 16 17 15 12 9 7 6
Wind_Direction
195 197 207 211 218 228 224 220 236 220 229 238 245 255 236 251 228 236 242 250 247 250 245 243 228 198 178 172 178 186 195 204 195 186 201 216 209 211 206 213 223 226 238 261
220 218 203 206 201 204 212 234 244 288 266 221 249 250 240 233 230 231 234 238 234 237 235 232 215 184 180 174 170 162 161 194 189 205 216 212 217 227 242 229 238 223 230 202
215 216 201 202 212 210 220 228 228 239 300 271 270 265 253 248 229 232 234 235 237 229 225 219 202 188 180 171 162 170 171 179 162 172 188 206 219 228 225 218 219 217 226 231
226 232 198 202 217 208 229 213 233 252 250 251 165 269 226 211 204 202 221 235 243 233 207 202 193 183 179 176 174 178 178 173 169 171 183 196 196 192 203 213 206 213 224 228
208 200 218 211 213 207 232 219 227 242 249 251 273 222 266 144 237 256 252 226 229 213 204 198 190 181 177 175 178 177 171 169 173 177 198 204 225 240 231 207 210 221 222 218
219 201 201 226 219 218 218 230 233 247 243 246 250 165 282 190 184 267 274 215 183 185 194 195 189 173 173 176 169 169 174 175 182 197 201 205 217 226 229 216 220 207 200 188
214 219 225 203 225 224 213 206 237 218 206 218 230 144 226 234 258 252 188 176 182 185 193 183 171 169 175 174 172 179 179 179 187 195 198 202 215 217 212 198 176 175 185 192
214 216 212 218 207 205 214 198 163 187 161 192 203 193 250 238 324 25 208 171 182 189 201 171 171 172 170 170 173 176 182 179 185 194 199 203 205 192 191 187 190 196 201 206
191 221 176 217 226 212 219 197 200 153 158 91 243 116 14 28 20 40 63 67 84 140 151 157 162 161 160 162 165 169 165 168 174 164 157 159 164 168 171 175 182 193 206 220
283 208 229 241 240 226 209 199 167 289 132 162 297 73 137 20 31 44 58 53 65 88 104 127 144 142 140 125 114 107 121 134 138 148 156 158 161 169 175 185 201 215 228 241
267 30 7 47 117 226 221 213 189 127 126 145 131 235 183 141 96 77 64 70 67 75 83 98 118 116 110 105 104 106 109 113 115 121 126 142 160 181 213 230 250 266 275 281
205 305 180 205 278 328 186 124 150 167 168 159 152 240 177 149 113 100 77 81 88 85 85 97 101 107 110 112 112 112 116 112 113 118 121 119 106 299 293 293 294 293 292 291
164 207 121 49 321 217 205 129 123 117 117 184 139 243 2 120 115 111 107 105 101 104 94 92 109 106 112 113 114 114 116 121 128 136 121 307 297 294 292 291 291 291 293 295
29 186 156 180 128 123 132 132 253 153 104 156 168 151 188 92 127 125 116 114 112 114 112 134 120 115 105 109 116 125 122 115 113 317 311 304 300 294 292 293 292 291 291 293
293 196 166 114 133 135 147 210 221 179 171 153 181 148 169 158 142 148 139 130 136 136 141 142 135 131 128 126 127 128 121 311 306 302 303 300 296 295 294 292 290 291 291 291
220 246 159 105 81 40 166 229 325 184 113 100 128 88 160 118 117 124 136 135 130 127 117 124 126 124 121 118 106 78 307 301 301 299 295 293 292 293 293 294 296 296 295 293
218 241 94 124 20 359 193 249 284 134 148 139 142 146 117 125 140 151 142 124 118 117 119 128 125 115 105 92 54 340 324 309 298 294 295 292 290 292 294 296 298 298 299 299
236 87 68 123 83 175 164 269 252 106 99 112 113 116 115 104 113 122 116 115 112 118 122 113 106 98 71 36 351 339 319 309 307 302 299 295 297 298 299 301 303 305 305 306
224 104 97 108 94 320 125 15 113 120 91 116 118 120 118 111 95 77 108 127 121 117 111 101 88 72 45 17 359 338 325 319 316 311 308 311 312 310 311 313 320 323 320 316
160 227 108 108 97 96 303 182 196 154 54 151 134 137 133 123 104 121 121 121 116 110 101 91 71 63 42 30 12 358 355 350 343 340 333 327 324 322 321 327 333 327 325 324
176 159 105 109 100 197 105 150 169 76 200 149 136 135 118 96 119 133 125 112 108 101 94 87 76 58 47 36 26 23 19 12 1 346 333 330 330 330 328 329 328 325 322 322
76 116 101 86 122 89 107 125 169 164 112 115 109 112 105 115 123 122 116 112 108 102 92 77 69 58 47 29 18 18 17 10 1 354 342 334 332 334 333 333 330 329 330 335
189 162 127 101 109 43 84 109 115 118 114 116 115 117 121 121 122 121 117 115 109 99 84 65 51 48 40 26 19 15 15 8 3 358 355 350 349 350 346 345 340 342 344 337
60 45 110 90 72 89 95 97 104 111 113 115 118 122 126 123 125 121 118 115 109 96 76 54 46 45 34 23 19 15 11 14 11 9 11 13 15 16 8 360 352 348 346 354
87 109 105 100 102 91 90 100 108 110 120 122 128 132 131 131 127 126 121 118 112 103 93 77 55 40 31 23 18 17 12 14 19 21 22 27 26 18 15 26 4 359 9 19
56 135 119 123 114 109 111 112 123 118 121 128 128 126 128 129 126 125 117 115 109 100 98 87 62 37 26 28 21 26 17 14 19 25 24 20 21 21 21 27 50 34 50 37